Location: Skymont Scout Reservation
(35.4344°N, 85.8742°W)
Time: 03:11:52
(UTC-05:00)

ISS - All Passes

Search period start: 01 October 2014 00:00
Search period end: 11 October 2014 00:00
Orbit: 413 x 416 km, 51.6° (Epoch: 01 October)

Date Brightness Start Highest point End Pass type
(mag) Time Alt. Az. Time Alt. Az. Time Alt. Az.
01 Oct - 04:34:50 10° NNW 04:37:53 32° NE 04:40:55 10° ESE visible
01 Oct - 06:11:54 10° W 06:14:25 20° SW 06:16:55 10° S visible
01 Oct - 21:14:30 10° SSW 21:17:45 55° SE 21:21:01 10° ENE night (unlit)
01 Oct - 22:52:26 10° WNW 22:54:41 17° NNW 22:56:56 10° NNE night (unlit)
02 Oct - 03:46:05 10° NNW 03:48:39 20° NNE 03:51:12 10° E visible
02 Oct - 05:22:19 10° WNW 05:25:26 39° SW 05:28:32 10° SSE visible
02 Oct - 20:25:51 10° SSW 20:28:44 27° SE 20:31:37 10° ENE visible
02 Oct - 22:02:33 10° W 22:05:23 26° NNW 22:08:14 10° NNE night (unlit)
03 Oct - 02:57:30 10° N 02:59:19 14° NNE 03:01:07 10° ENE night (unlit)
03 Oct - 04:33:03 10° NW 04:36:22 81° SW 04:39:40 10° SE visible
03 Oct - 19:37:50 10° SSE 19:39:45 15° SE 19:41:40 10° E visible
03 Oct - 21:12:57 10° WSW 21:16:08 44° NW 21:19:21 10° NE night (unlit)
04 Oct - 03:43:58 10° NW 03:47:13 51° NE 03:50:27 10° ESE night (unlit)
04 Oct - 05:22:06 10° W 05:23:33 12° SW 05:24:59 10° SSW visible
04 Oct - 20:23:38 10° SW 20:26:57 86° NW 20:30:17 10° NE visible
04 Oct - 22:02:31 10° NW 22:04:04 13° NNW 22:05:38 10° N night (unlit)
05 Oct - 02:55:00 10° NNW 02:57:57 29° NE 03:00:53 10° E night (unlit)
05 Oct - 04:31:50 10° WNW 04:34:32 23° SW 04:37:15 10° S night (unlit)
05 Oct - 19:34:36 10° SSW 19:37:48 46° SE 19:41:00 10° ENE visible
05 Oct - 21:12:14 10° WNW 21:14:39 18° NNW 21:17:04 10° NNE visible
06 Oct - 02:06:11 10° NNW 02:08:36 18° NNE 02:11:00 10° ENE night (unlit)
06 Oct - 03:42:15 10° WNW 03:45:27 46° SW 03:48:38 10° SSE night (unlit)
06 Oct - 18:45:59 10° S 18:48:42 23° SE 18:51:25 10° ENE visible
06 Oct - 20:22:20 10° W 20:25:17 29° NW 20:28:14 10° NNE visible
07 Oct - 01:17:37 10° N 01:19:09 13° NNE 01:20:41 10° NE night (unlit)
07 Oct - 02:52:57 10° NW 02:56:17 85° NE 02:59:35 10° SE night (unlit)
07 Oct - 17:58:11 10° SSE 17:59:38 12° SE 18:01:04 10° E daylight
07 Oct - 19:32:43 10° WSW 19:35:57 51° NW 19:39:13 10° NE visible
08 Oct - 02:03:48 10° NW 02:07:00 43° NE 02:10:11 10° ESE night (unlit)
08 Oct - 03:41:28 10° W 03:43:24 15° SW 03:45:19 10° SSW night (unlit)
08 Oct - 18:43:23 10° SW 18:46:41 80° SE 18:50:01 10° NE visible
08 Oct - 20:21:55 10° WNW 20:23:44 14° NNW 20:25:34 10° N visible
09 Oct - 01:14:48 10° NNW 01:17:38 25° NNE 01:20:27 10° E night (unlit)
09 Oct - 02:51:24 10° WNW 02:54:17 28° SW 02:57:09 10° SSE night (unlit)
09 Oct - 17:54:22 10° SSW 17:57:28 38° SE 18:00:35 10° ENE daylight
09 Oct - 19:31:39 10° W 19:34:14 21° NNW 19:36:50 10° NNE visible
10 Oct - 00:25:56 10° NNW 00:28:10 17° NNE 00:30:23 10° ENE night (unlit)
10 Oct - 02:01:49 10° NW 02:05:05 56° SW 02:08:20 10° SE night (unlit)
10 Oct - 17:05:48 10° S 17:08:17 20° SE 17:10:47 10° E daylight
10 Oct - 18:41:45 10° WSW 18:44:47 33° NW 18:47:51 10° NNE visible
10 Oct - 23:37:25 10° N 23:38:36 11° NNE 23:39:47 10° NE night (unlit)
